Overview Statistics Trail Chart Weather Telemetry Raw packets
 

This is the latest recevied weather packets stored in our database for station/object HOWARD. If no packets are shown the sender has not sent any weather packets the latest 10 day(s).

<< 31 32 33 34 35 36 37 >>
Time Temp. Humidity Pressure Rain* Wind** Luminosity Snow
1788207882 16.11° C 33% 1016.7 hPa 0 mm - - -
1788207281 15.56° C 35% 1016.1 hPa 0 mm - - -
1788206681 15° C 34% 1016.1 hPa 0 mm - - -
1788206081 15° C 34% 1016.3 hPa 0 mm - - -
1788205481 14.44° C 35% 1016.4 hPa 0 mm - - -
1788204882 15° C 36% 1016.5 hPa 0 mm - - -
1788204281 15° C 37% 1016.6 hPa 0 mm - - -
1788203681 15° C 33% 1016.7 hPa 0 mm - - -
1788203081 15° C 34% 1016.7 hPa 0 mm - - -
1788202481 15° C 33% 1016.8 hPa 0 mm - - -
1788201881 14.44° C 34% 1017 hPa 0 mm - - -
1788201281 14.44° C 35% 1017 hPa 0 mm - - -
1788200719 13.89° C 37% 1017.1 hPa 0 mm - - -
1788200681 13.89° C 37% 1017.1 hPa 0 mm - - -
1788200081 13.89° C 35% 1017.1 hPa 0 mm - - -
1788199481 13.33° C 37% 1017.2 hPa 0 mm - - -
1788198881 13.33° C 36% 1016.5 hPa 0 mm - - -
1788198281 13.89° C 35% 1016.5 hPa 0 mm - - -
1788197681 13.89° C 34% 1016.6 hPa 0 mm - - -
1788197081 14.44° C 33% 1016.7 hPa 0 mm - - -
1788196481 14.44° C 34% 1016.7 hPa 0 mm - - -
1788195932 13.89° C 35% 1016.8 hPa 0 mm - - -
1788195881 13.89° C 35% 1016.8 hPa 0 mm - - -
1788195281 13.33° C 37% 1016.8 hPa 0 mm - - -
1788194681 13.33° C 36% 1016.8 hPa 0 mm - - -

* Rain latest hour (hover to see other rain measurements)
** Current wind speed in m/s (hover to see current wind gust speed)